Regional Weather Roundup
Issued by NWS

Home | Current Version | Previous Version | Graphics & Text | Print | Product List | Glossary On
Versions: 1 2 3 4 5 6 7 8 9 10 11 12 13 14 15 16 17 18 19 20 21 22 23 24 25 26 27 28 29 30 31 32 33 34 35 36 37 38 39 40 41 42 43 44 45 46 47 48 49 50
000
ASUS44 KMEG 231910
RWRTN
TENNESSEE HOURLY STATE WEATHER ROUNDUP
NATIONAL WEATHER SERVICE MEMPHIS TN
100 PM CST SUN NOV 23 2014

TNZ002-004-019-021-049-052-054-088>092-232000-
WEST TENNESSEE

CITY           SKY/WX    TMP DP  RH WIND       PRES   REMARKS
MEMPHIS INTL   LGT RAIN  60  58  92 SE5       29.41F FOG
NWS MEMPHIS      N/A     59 N/A N/A MISG        N/A
JACKSON        LGT RAIN  57  55  93 SE7       29.46F
DYERSBURG      CLOUDY    57  46  67 E8        29.46F
UNION CITY     CLOUDY    55  54  94 SE9       29.47F
PARIS          CLOUDY    54  54 100 SE8       29.52F
HUNTINGDON     CLOUDY    54  54 100 SE7       29.50F
LEXINGTON      CLOUDY    55  55 100 VRB5      29.49F
SAVANNAH       CLOUDY    57  57 100 SE8       29.48F
$$

TNZ008-025-027-028-033-062-065-066-232000-
NORTH MIDDLE TENNESSEE

CITY           SKY/WX    TMP DP  RH WIND       PRES   REMARKS
NASHVILLE      CLOUDY    59  55  87 SE13G21   29.60F
CLARKSVILLE    LGT RAIN  58  55  90 SE15      29.55F
SMYRNA         CLOUDY    60  55  83 SE14G22   29.61F
COOKEVILLE     CLOUDY    61  54  77 S14       29.66F
CROSSVILLE     CLOUDY    57  51  80 SE14G24   29.74F
$$

TNZ061-075-076-078-094-096-097-232000-
SOUTH MIDDLE TENNESSEE

CITY           SKY/WX    TMP DP  RH WIND       PRES   REMARKS
FAYETTEVILLE   CLOUDY    55  54  94 N14       29.61F
TULLAHOMA      CLOUDY    55  54  94 SE13      29.63F
WINCHESTER     CLOUDY    55  54  94 SE9       29.65F
MCMINNVILLE    CLOUDY    61  57  88 CALM      29.65F
SHELBYVILLE    CLOUDY    59  55  88 SE18      29.61F
$$

TNZ017-018-042-046-047-232000-
NORTHEAST TENNESSEE

CITY           SKY/WX    TMP DP  RH WIND       PRES   REMARKS
TRI CITIES     LGT RAIN  55  51  86 E5        29.89F
ELIZABETHTON   LGT RAIN  52  46  82 E10       29.91F
$$

TNZ012-013-036-069-073-074-232000-
CENTRAL EAST TENNESSEE

CITY           SKY/WX    TMP DP  RH WIND       PRES   REMARKS
KNOXVILLE      CLOUDY    52  48  86 NE5       29.77F
OAK RIDGE      LGT RAIN  51  48  89 CALM      29.80F
GATLINBURG     PTCLDY    48  46  93 N6        29.77F
MORRISTOWN     PTCLDY    54  50  87 E18       29.82F
$$

TNZ083-085-099-232000-
SOUTHEAST TENNESSEE

CITY           SKY/WX    TMP DP  RH WIND       PRES   REMARKS
CHATTANOOGA    LGT RAIN  50  49  96 E3        29.75F VSB 1
$$

SKY/WX REPORTED AS FAIR MEANS FEW OR NO CLOUDS BELOW
12 THOUSAND FEET.



USA.gov is the U.S. government's official web portal to all federal, state and local government web resources and services.